Zurück zum Katalog

STARLINK-1525

AktivKommunikationVLEO
NORAD 46066·PAYLOAD·🇺🇸 United States

Gestartet Aug 7, 2020 von Cape Canaveral Space Force Station

Loading…

Nächste Überflüge (nächste 24 Stunden)

TLE

AktuellSource: CelesTrak SupGP

Epoche: Sep 14, 2026, 20:15 UTC

1 46066C 20055AR  26257.84423611  .00208530  00000+0  23009-2 0  2575
2 46066  53.0436 280.1234 0011701  37.0015 229.4534 15.62245264    18

Verfolge STARLINK-1525 in Echtzeit mit AllMySat

Download on the App Store